Time,TemperatureF,DewpointF,PressureIn,WindDirection,WindDirectionDegrees,WindSpeedMPH,WindSpeedGustMPH,Humidity,HourlyPrecipIn,Conditions,Clouds,dailyrainin,SolarRadiationWatts/m^2,SoftwareType,DateUTC
2013-09-09 00:02:00,64.8,60.8,29.93,NW,319,0.0,1.0,87,0.00,,OVC021,0.00,0.00,VWS V14.01,2013-09-09 05:02:00,
2013-09-09 00:07:00,64.7,60.8,29.93,NW,319,0.0,1.0,87,0.00,,OVC021,0.00,0.00,VWS V14.01,2013-09-09 05:07:00,
2013-09-09 00:12:00,64.6,60.7,29.93,NW,319,0.0,0.0,87,0.00,,OVC021,0.00,0.00,VWS V14.01,2013-09-09 05:12:00,
2013-09-09 00:17:00,64.5,60.5,29.93,NW,319,0.0,1.0,87,0.00,,OVC021,0.00,0.00,VWS V14.01,2013-09-09 05:17:00,
2013-09-09 00:22:00,64.4,60.5,29.92,NW,319,0.0,0.0,87,0.00,,OVC021,0.00,0.00,VWS V14.01,2013-09-09 05:22:00,
2013-09-09 00:27:00,64.4,60.5,29.92,NW,319,0.0,1.0,87,0.00,,OVC021,0.00,0.00,VWS V14.01,2013-09-09 05:27:00,
2013-09-09 00:32:00,64.3,60.3,29.92,NW,319,0.0,0.0,87,0.00,,OVC021,0.00,0.00,VWS V14.01,2013-09-09 05:32:00,
2013-09-09 00:37:00,64.3,60.3,29.92,NW,319,0.0,0.0,87,0.00,,OVC021,0.00,0.00,VWS V14.01,2013-09-09 05:37:00,
2013-09-09 00:42:00,64.3,60.3,29.92,NW,319,0.0,0.0,87,0.00,,OVC021,0.00,0.00,VWS V14.01,2013-09-09 05:42:00,
2013-09-09 00:47:00,64.3,60.3,29.92,NW,319,0.0,1.0,87,0.00,,OVC025,0.00,0.00,VWS V14.01,2013-09-09 05:47:00,
2013-09-09 00:52:00,64.3,60.3,29.92,NW,319,0.0,1.0,87,0.00,,OVC025,0.00,0.00,VWS V14.01,2013-09-09 05:52:00,
2013-09-09 00:57:00,64.3,60.3,29.92,NW,319,0.0,1.0,87,0.00,,OVC025,0.00,0.00,VWS V14.01,2013-09-09 05:57:00,
2013-09-09 01:02:00,64.2,60.3,29.92,NW,319,0.0,0.0,87,0.00,,OVC023,0.00,0.00,VWS V14.01,2013-09-09 06:02:00,
2013-09-09 01:07:00,64.2,60.3,29.92,NW,319,0.0,0.0,87,0.00,,OVC023,0.00,0.00,VWS V14.01,2013-09-09 06:07:00,
2013-09-09 01:12:00,64.3,60.3,29.92,NW,319,0.0,1.0,87,0.00,,OVC023,0.00,0.00,VWS V14.01,2013-09-09 06:12:00,
2013-09-09 01:17:00,64.2,60.3,29.92,NW,319,0.0,1.0,87,0.00,,OVC021,0.00,0.00,VWS V14.01,2013-09-09 06:17:00,
2013-09-09 01:22:00,64.2,60.6,29.92,NW,319,0.0,1.0,88,0.00,,OVC021,0.00,0.00,VWS V14.01,2013-09-09 06:22:00,
2013-09-09 01:27:00,64.3,60.7,29.92,NW,319,0.0,1.0,88,0.00,,OVC021,0.00,0.00,VWS V14.01,2013-09-09 06:27:00,
2013-09-09 01:32:00,64.3,60.7,29.92,NW,319,0.0,0.0,88,0.00,,OVC021,0.00,0.00,VWS V14.01,2013-09-09 06:32:00,
2013-09-09 01:37:00,64.3,60.7,29.92,NW,319,0.0,0.0,88,0.00,,OVC021,0.00,0.00,VWS V14.01,2013-09-09 06:37:00,
2013-09-09 01:42:00,64.2,60.6,29.92,NW,319,0.0,0.0,88,0.00,,OVC021,0.00,0.00,VWS V14.01,2013-09-09 06:42:00,
2013-09-09 01:47:00,64.3,60.7,29.91,NW,319,0.0,1.0,88,0.00,,OVC021,0.00,0.00,VWS V14.01,2013-09-09 06:47:00,
2013-09-09 01:52:00,64.2,60.6,29.91,NW,319,0.0,1.0,88,0.00,,OVC021,0.00,0.00,VWS V14.01,2013-09-09 06:52:00,
2013-09-09 01:57:00,64.3,60.7,29.91,NW,319,0.0,1.0,88,0.00,,OVC021,0.00,0.00,VWS V14.01,2013-09-09 06:57:00,
2013-09-09 02:02:00,64.3,60.7,29.91,NW,319,0.0,1.0,88,0.00,,OVC023,0.00,0.00,VWS V14.01,2013-09-09 07:02:00,
2013-09-09 02:07:00,64.2,60.6,29.91,NW,319,0.0,1.0,88,0.00,,OVC023,0.00,0.00,VWS V14.01,2013-09-09 07:07:00,
2013-09-09 02:12:00,64.2,60.6,29.90,NW,319,0.0,1.0,88,0.00,,OVC023,0.00,0.00,VWS V14.01,2013-09-09 07:12:00,
2013-09-09 02:17:00,64.2,60.6,29.90,NW,319,0.0,1.0,88,0.00,,OVC023,0.00,0.00,VWS V14.01,2013-09-09 07:17:00,
2013-09-09 02:22:00,64.2,60.6,29.90,NW,319,0.0,2.0,88,0.00,,OVC023,0.00,0.00,VWS V14.01,2013-09-09 07:22:00,
2013-09-09 02:27:00,64.2,60.6,29.90,NW,319,0.0,2.0,88,0.00,,OVC023,0.00,0.00,VWS V14.01,2013-09-09 07:27:00,
2013-09-09 02:32:00,64.1,60.5,29.90,NW,319,0.0,1.0,88,0.00,,OVC025,0.00,0.00,VWS V14.01,2013-09-09 07:32:00,
2013-09-09 02:37:00,64.1,60.5,29.90,NW,319,0.0,1.0,88,0.00,,OVC025,0.00,0.00,VWS V14.01,2013-09-09 07:37:00,
2013-09-09 02:42:00,64.1,60.5,29.89,NW,319,0.0,0.0,88,0.00,,OVC025,0.00,0.00,VWS V14.01,2013-09-09 07:42:00,
2013-09-09 02:47:00,64.1,60.5,29.89,NW,319,1.0,1.0,88,0.00,,OVC025,0.00,0.00,VWS V14.01,2013-09-09 07:47:00,
2013-09-09 02:52:00,64.1,60.5,29.89,NW,319,0.0,1.0,88,0.00,,OVC025,0.00,0.00,VWS V14.01,2013-09-09 07:52:00,
2013-09-09 02:57:00,64.1,60.5,29.89,NW,319,0.0,1.0,88,0.00,,OVC025,0.00,0.00,VWS V14.01,2013-09-09 07:57:00,
2013-09-09 03:02:00,64.1,60.5,29.89,NW,319,0.0,1.0,88,0.00,,OVC025,0.00,0.00,VWS V14.01,2013-09-09 08:02:00,
2013-09-09 03:07:00,64.1,60.5,29.89,NW,319,0.0,2.0,88,0.00,,OVC025,0.00,0.00,VWS V14.01,2013-09-09 08:07:00,
2013-09-09 03:12:00,64.1,60.5,29.88,NW,319,0.0,1.0,88,0.00,,OVC025,0.00,0.00,VWS V14.01,2013-09-09 08:12:00,
2013-09-09 03:17:00,64.1,60.5,29.89,NW,319,1.0,1.0,88,0.00,,OVC025,0.00,0.00,VWS V14.01,2013-09-09 08:17:00,
2013-09-09 03:22:00,64.1,60.5,29.88,NW,319,1.0,2.0,88,0.00,,OVC025,0.00,0.00,VWS V14.01,2013-09-09 08:22:00,
2013-09-09 03:27:00,64.1,60.5,29.88,NW,319,0.0,2.0,88,0.00,,OVC025,0.00,0.00,VWS V14.01,2013-09-09 08:27:00,
2013-09-09 03:32:00,64.1,60.5,29.88,NW,319,0.0,1.0,88,0.00,,OVC025,0.00,0.00,VWS V14.01,2013-09-09 08:32:00,
2013-09-09 03:37:00,64.0,60.4,29.88,NW,319,0.0,1.0,88,0.00,,OVC025,0.00,0.00,VWS V14.01,2013-09-09 08:37:00,
2013-09-09 03:42:00,64.0,60.4,29.88,NW,319,0.0,1.0,88,0.00,,OVC025,0.00,0.00,VWS V14.01,2013-09-09 08:42:00,
2013-09-09 03:47:00,64.0,60.4,29.88,NW,319,0.0,1.0,88,0.00,,OVC023,0.00,0.00,VWS V14.01,2013-09-09 08:47:00,
2013-09-09 03:52:00,64.0,60.4,29.88,NW,319,0.0,2.0,88,0.00,,OVC023,0.00,0.00,VWS V14.01,2013-09-09 08:52:00,
2013-09-09 03:57:00,64.0,60.4,29.88,NW,319,0.0,2.0,88,0.00,,OVC023,0.00,0.00,VWS V14.01,2013-09-09 08:57:00,
2013-09-09 04:02:00,64.0,60.4,29.88,NW,319,0.0,2.0,88,0.00,,OVC023,0.00,0.00,VWS V14.01,2013-09-09 09:02:00,
2013-09-09 04:07:00,63.9,60.3,29.87,NW,319,1.0,2.0,88,0.00,,OVC023,0.00,0.00,VWS V14.01,2013-09-09 09:07:00,
2013-09-09 04:12:00,63.8,60.2,29.87,NW,319,0.0,1.0,88,0.00,,OVC023,0.00,0.00,VWS V14.01,2013-09-09 09:12:00,
2013-09-09 04:17:00,63.8,60.2,29.87,NW,319,0.0,2.0,88,0.00,,OVC023,0.00,0.00,VWS V14.01,2013-09-09 09:17:00,
2013-09-09 04:22:00,63.8,60.2,29.87,NW,319,0.0,1.0,88,0.00,,OVC023,0.00,0.00,VWS V14.01,2013-09-09 09:22:00,
2013-09-09 04:27:00,63.8,60.2,29.86,NW,319,0.0,1.0,88,0.00,,OVC023,0.00,0.00,VWS V14.01,2013-09-09 09:27:00,
2013-09-09 04:32:00,63.7,60.1,29.86,NW,319,0.0,1.0,88,0.00,,OVC023,0.00,0.00,VWS V14.01,2013-09-09 09:32:00,
2013-09-09 04:37:00,63.7,60.1,29.86,NW,319,0.0,1.0,88,0.00,,OVC023,0.00,0.00,VWS V14.01,2013-09-09 09:37:00,
2013-09-09 04:42:00,63.7,60.1,29.86,NW,319,0.0,2.0,88,0.00,,OVC023,0.00,0.00,VWS V14.01,2013-09-09 09:42:00,
2013-09-09 04:47:00,63.6,60.3,29.86,NW,319,1.0,2.0,89,0.00,,OVC023,0.00,0.00,VWS V14.01,2013-09-09 09:47:00,
2013-09-09 04:52:00,63.6,60.3,29.86,NW,319,0.0,1.0,89,0.00,,OVC023,0.00,0.00,VWS V14.01,2013-09-09 09:52:00,
2013-09-09 04:57:00,63.7,60.4,29.86,NW,319,0.0,2.0,89,0.00,,OVC023,0.00,0.00,VWS V14.01,2013-09-09 09:57:00,
2013-09-09 05:02:00,63.7,60.4,29.86,NW,319,1.0,1.0,89,0.00,,OVC025,0.00,0.00,VWS V14.01,2013-09-09 10:02:00,
2013-09-09 05:07:00,63.7,60.4,29.85,NW,319,1.0,2.0,89,0.00,,OVC025,0.00,0.00,VWS V14.01,2013-09-09 10:07:00,
2013-09-09 05:12:00,63.7,60.4,29.86,NW,319,0.0,1.0,89,0.00,,OVC025,0.00,0.00,VWS V14.01,2013-09-09 10:12:00,
2013-09-09 05:17:00,63.7,60.4,29.86,NW,319,0.0,1.0,89,0.00,,OVC025,0.00,0.00,VWS V14.01,2013-09-09 10:17:00,
2013-09-09 05:22:00,63.7,60.4,29.86,NW,319,0.0,2.0,89,0.00,,OVC025,0.00,0.00,VWS V14.01,2013-09-09 10:22:00,
2013-09-09 05:27:00,63.7,60.4,29.86,NW,319,0.0,2.0,89,0.00,,OVC025,0.00,0.00,VWS V14.01,2013-09-09 10:27:00,
2013-09-09 05:32:00,63.7,60.4,29.85,NW,319,1.0,1.0,89,0.00,,OVC020,0.00,0.00,VWS V14.01,2013-09-09 10:32:00,
2013-09-09 05:37:00,63.7,60.4,29.85,NW,319,0.0,2.0,89,0.00,,OVC020,0.00,0.00,VWS V14.01,2013-09-09 10:37:00,
2013-09-09 05:42:00,63.6,60.3,29.85,NW,319,0.0,1.0,89,0.00,,OVC020,0.00,0.00,VWS V14.01,2013-09-09 10:42:00,
2013-09-09 05:47:00,63.6,60.3,29.85,NW,319,0.0,2.0,89,0.00,,OVC018,0.00,0.00,VWS V14.01,2013-09-09 10:47:00,
2013-09-09 05:52:00,63.5,60.2,29.85,NW,319,0.0,2.0,89,0.00,,OVC018,0.00,0.00,VWS V14.01,2013-09-09 10:52:00,
2013-09-09 05:57:00,63.6,60.3,29.85,NW,319,0.0,2.0,89,0.00,,OVC018,0.00,0.00,VWS V14.01,2013-09-09 10:57:00,
2013-09-09 06:02:00,63.5,60.2,29.85,NW,319,0.0,3.0,89,0.00,,OVC018,0.00,0.00,VWS V14.01,2013-09-09 11:02:00,
2013-09-09 06:07:00,63.5,60.2,29.85,NW,319,3.0,3.0,89,0.00,,OVC018,0.00,0.00,VWS V14.01,2013-09-09 11:07:00,
2013-09-09 06:12:00,63.4,60.4,29.85,NW,319,0.0,2.0,90,0.00,,OVC018,0.00,0.00,VWS V14.01,2013-09-09 11:12:00,
2013-09-09 06:17:00,63.4,60.4,29.85,NW,319,0.0,2.0,90,0.00,,OVC018,0.00,0.00,VWS V14.01,2013-09-09 11:17:00,
2013-09-09 06:22:00,63.4,60.4,29.85,NW,319,0.0,1.0,90,0.00,,OVC018,0.00,0.00,VWS V14.01,2013-09-09 11:22:00,
2013-09-09 06:27:00,63.4,60.4,29.86,NW,319,0.0,1.0,90,0.00,,OVC018,0.00,0.00,VWS V14.01,2013-09-09 11:27:00,
2013-09-09 06:32:00,63.4,60.4,29.86,NW,319,0.0,1.0,90,0.00,,OVC016,0.00,0.00,VWS V14.01,2013-09-09 11:32:00,
2013-09-09 06:37:00,63.4,60.4,29.86,NW,319,0.0,1.0,90,0.00,,OVC016,0.00,0.00,VWS V14.01,2013-09-09 11:37:00,
2013-09-09 06:42:00,63.4,60.4,29.86,NW,319,0.0,0.0,90,0.00,,OVC016,0.00,0.00,VWS V14.01,2013-09-09 11:42:00,
2013-09-09 06:47:00,63.4,60.4,29.86,NW,319,0.0,1.0,90,0.00,,OVC016,0.00,0.00,VWS V14.01,2013-09-09 11:47:00,
2013-09-09 06:52:00,63.4,60.4,29.86,NW,319,1.0,1.0,90,0.00,,OVC016,0.00,5.00,VWS V14.01,2013-09-09 11:52:00,
2013-09-09 06:57:00,63.4,60.4,29.86,NW,319,0.0,1.0,90,0.00,,OVC016,0.00,9.00,VWS V14.01,2013-09-09 11:57:00,
2013-09-09 07:02:00,63.4,60.4,29.86,NW,319,0.0,1.0,90,0.00,,OVC014,0.00,11.00,VWS V14.01,2013-09-09 12:02:00,
2013-09-09 07:07:00,63.4,60.4,29.85,NW,319,0.0,1.0,90,0.00,,OVC014,0.00,16.00,VWS V14.01,2013-09-09 12:07:00,
2013-09-09 07:12:00,63.5,60.8,29.85,NW,319,0.0,1.0,91,0.00,,OVC014,0.00,18.00,VWS V14.01,2013-09-09 12:12:00,
2013-09-09 07:17:00,63.5,60.8,29.85,NW,319,0.0,2.0,91,0.00,,OVC014,0.00,18.00,VWS V14.01,2013-09-09 12:17:00,
2013-09-09 07:22:00,63.5,60.8,29.85,NW,319,0.0,1.0,91,0.00,,OVC014,0.00,26.00,VWS V14.01,2013-09-09 12:22:00,
2013-09-09 07:27:00,63.6,60.9,29.85,NW,319,0.0,1.0,91,0.00,,OVC014,0.00,21.00,VWS V14.01,2013-09-09 12:27:00,
2013-09-09 07:32:00,63.6,60.9,29.85,NW,319,1.0,3.0,91,0.00,,OVC012,0.00,33.00,VWS V14.01,2013-09-09 12:32:00,
2013-09-09 07:37:00,63.7,61.0,29.85,NW,319,0.0,3.0,91,0.00,,OVC012,0.00,42.00,VWS V14.01,2013-09-09 12:37:00,
2013-09-09 07:42:00,63.8,61.1,29.84,NW,319,0.0,0.0,91,0.00,,OVC012,0.00,40.00,VWS V14.01,2013-09-09 12:42:00,
2013-09-09 07:47:00,63.9,61.2,29.84,NW,319,0.0,2.0,91,0.00,,OVC012,0.00,44.00,VWS V14.01,2013-09-09 12:47:00,
2013-09-09 07:52:00,64.0,61.3,29.85,NW,319,1.0,1.0,91,0.00,,OVC012,0.00,51.00,VWS V14.01,2013-09-09 12:52:00,
2013-09-09 07:57:00,64.1,61.4,29.85,NW,319,0.0,2.0,91,0.00,,OVC012,0.00,47.00,VWS V14.01,2013-09-09 12:57:00,
2013-09-09 08:02:00,64.3,61.9,29.84,NW,319,0.0,1.0,92,0.00,,OVC010,0.00,62.00,VWS V14.01,2013-09-09 13:02:00,
2013-09-09 08:07:00,64.5,62.1,29.84,NW,319,0.0,1.0,92,0.00,,OVC010,0.00,58.00,VWS V14.01,2013-09-09 13:07:00,
2013-09-09 08:12:00,64.6,62.2,29.84,NW,319,0.0,1.0,92,0.00,,OVC010,0.00,60.00,VWS V14.01,2013-09-09 13:12:00,
2013-09-09 08:17:00,64.8,62.4,29.83,NW,319,0.0,2.0,92,0.00,,OVC010,0.00,69.00,VWS V14.01,2013-09-09 13:17:00,
2013-09-09 08:22:00,64.9,62.5,29.83,NW,319,0.0,0.0,92,0.00,,OVC010,0.00,81.00,VWS V14.01,2013-09-09 13:22:00,
2013-09-09 08:27:00,65.1,62.7,29.83,NW,319,0.0,0.0,92,0.00,,OVC010,0.00,90.00,VWS V14.01,2013-09-09 13:27:00,
2013-09-09 08:32:00,65.3,62.9,29.83,NW,319,0.0,0.0,92,0.00,,OVC010,0.00,90.00,VWS V14.01,2013-09-09 13:32:00,
2013-09-09 08:37:00,65.5,63.1,29.84,NW,319,0.0,2.0,92,0.00,,OVC010,0.00,105.00,VWS V14.01,2013-09-09 13:37:00,
2013-09-09 08:42:00,65.7,63.3,29.84,NW,319,1.0,1.0,92,0.00,,OVC010,0.00,98.00,VWS V14.01,2013-09-09 13:42:00,
2013-09-09 08:47:00,65.9,63.2,29.84,NW,319,2.0,2.0,91,0.00,,OVC010,0.00,109.00,VWS V14.01,2013-09-09 13:47:00,
2013-09-09 08:52:00,66.1,63.4,29.84,NW,319,0.0,1.0,91,0.00,,OVC010,0.00,109.00,VWS V14.01,2013-09-09 13:52:00,
2013-09-09 08:57:00,66.3,63.6,29.84,NW,319,0.0,2.0,91,0.00,,OVC010,0.00,123.00,VWS V14.01,2013-09-09 13:57:00,
2013-09-09 09:02:00,66.6,63.9,29.83,NW,319,0.0,1.0,91,0.00,,OVC010,0.00,135.00,VWS V14.01,2013-09-09 14:02:00,
2013-09-09 09:07:00,66.8,64.1,29.83,NW,319,0.0,1.0,91,0.00,,OVC010,0.00,139.00,VWS V14.01,2013-09-09 14:07:00,
2013-09-09 09:12:00,67.1,64.4,29.83,NW,319,0.0,2.0,91,0.00,,OVC010,0.00,190.00,VWS V14.01,2013-09-09 14:12:00,
2013-09-09 09:17:00,67.4,64.7,29.83,NW,319,0.0,2.0,91,0.00,,OVC010,0.00,179.00,VWS V14.01,2013-09-09 14:17:00,
2013-09-09 09:22:00,67.8,65.1,29.83,NW,319,0.0,1.0,91,0.00,,OVC010,0.00,163.00,VWS V14.01,2013-09-09 14:22:00,
2013-09-09 09:27:00,68.1,65.1,29.83,NW,319,0.0,2.0,90,0.00,,OVC010,0.00,181.00,VWS V14.01,2013-09-09 14:27:00,
2013-09-09 09:32:00,68.4,65.4,29.83,NW,319,0.0,0.0,90,0.00,,OVC010,0.00,172.00,VWS V14.01,2013-09-09 14:32:00,
2013-09-09 09:37:00,68.7,65.3,29.83,NW,319,0.0,2.0,89,0.00,,OVC010,0.00,195.00,VWS V14.01,2013-09-09 14:37:00,
2013-09-09 09:42:00,69.0,65.9,29.82,NW,319,0.0,0.0,90,0.00,,OVC010,0.00,195.00,VWS V14.01,2013-09-09 14:42:00,
2013-09-09 09:47:00,69.4,66.0,29.82,NW,319,1.0,1.0,89,0.00,,OVC010,0.00,469.00,VWS V14.01,2013-09-09 14:47:00,
2013-09-09 09:52:00,69.9,66.5,29.82,NW,319,2.0,6.0,89,0.00,,OVC010,0.00,501.00,VWS V14.01,2013-09-09 14:52:00,
2013-09-09 09:57:00,70.4,66.7,29.83,NW,319,0.0,6.0,88,0.00,,OVC010,0.00,501.00,VWS V14.01,2013-09-09 14:57:00,
2013-09-09 10:02:00,70.9,66.8,29.83,NW,319,2.0,2.0,87,0.00,,OVC008,0.00,461.00,VWS V14.01,2013-09-09 15:02:00,
2013-09-09 10:07:00,71.4,67.0,29.83,NW,321,4.0,4.0,86,0.00,,OVC008,0.00,476.00,VWS V14.01,2013-09-09 15:07:00,
2013-09-09 10:12:00,71.9,67.8,29.83,NW,323,0.0,3.0,87,0.00,,OVC008,0.00,510.00,VWS V14.01,2013-09-09 15:12:00,
2013-09-09 10:16:00,72.3,67.5,29.83,NNW,334,4.0,4.0,85,0.00,,OVC008,0.00,531.00,VWS V14.01,2013-09-09 15:16:00,
2013-09-09 10:21:00,72.6,67.8,29.83,North,11,0.0,5.0,85,0.00,,OVC008,0.00,311.00,VWS V14.01,2013-09-09 15:21:00,
2013-09-09 10:26:00,72.8,67.7,29.83,North,9,0.0,5.0,84,0.00,,OVC008,0.00,281.00,VWS V14.01,2013-09-09 15:26:00,
2013-09-09 10:31:00,73.0,67.9,29.83,North,11,3.0,4.0,84,0.00,,BKN010,0.00,248.00,VWS V14.01,2013-09-09 15:31:00,
2013-09-09 10:36:00,73.0,68.2,29.84,NNE,19,1.0,5.0,85,0.00,,BKN010,0.00,214.00,VWS V14.01,2013-09-09 15:36:00,
2013-09-09 10:41:00,73.0,68.2,29.84,NNE,28,3.0,6.0,85,0.00,,BKN010,0.00,188.00,VWS V14.01,2013-09-09 15:41:00,
2013-09-09 10:46:00,72.9,68.1,29.84,NE,37,0.0,6.0,85,0.00,,BKN050,0.00,163.00,VWS V14.01,2013-09-09 15:46:00,
2013-09-09 10:51:00,72.9,68.1,29.84,NNE,32,3.0,5.0,85,0.00,,BKN050,0.00,169.00,VWS V14.01,2013-09-09 15:51:00,
2013-09-09 10:56:00,72.8,68.0,29.83,NE,43,1.0,6.0,85,0.00,,BKN050,0.00,244.00,VWS V14.01,2013-09-09 15:56:00,
2013-09-09 11:01:00,72.9,68.1,29.83,NNE,32,0.0,3.0,85,0.00,,OVC050,0.00,297.00,VWS V14.01,2013-09-09 16:01:00,
2013-09-09 11:06:00,73.0,68.6,29.83,NE,42,4.0,8.0,86,0.00,,OVC050,0.00,301.00,VWS V14.01,2013-09-09 16:06:00,
2013-09-09 11:11:00,73.1,68.7,29.83,NE,36,0.0,1.0,86,0.00,,OVC050,0.00,114.00,VWS V14.01,2013-09-09 16:11:00,
2013-09-09 11:16:00,73.1,68.7,29.83,NNE,17,0.0,4.0,86,0.00,,OVC050,0.00,104.00,VWS V14.01,2013-09-09 16:16:00,
2013-09-09 11:21:00,73.1,68.3,29.82,NNE,17,0.0,1.0,85,0.00,,OVC050,0.00,100.00,VWS V14.01,2013-09-09 16:21:00,
2013-09-09 11:26:00,73.1,68.7,29.82,NNE,17,3.0,4.0,86,0.00,,OVC050,0.00,281.00,VWS V14.01,2013-09-09 16:26:00,
2013-09-09 11:31:00,73.4,69.0,29.82,NNE,17,1.0,4.0,86,0.00,,BKN050,0.00,271.00,VWS V14.01,2013-09-09 16:31:00,
2013-09-09 11:36:00,74.0,69.6,29.81,NNE,17,0.0,4.0,86,0.00,,BKN050,0.00,327.00,VWS V14.01,2013-09-09 16:36:00,
2013-09-09 11:41:00,74.8,69.7,29.81,NNE,22,0.0,6.0,84,0.00,,BKN050,0.00,615.00,VWS V14.01,2013-09-09 16:41:00,
2013-09-09 11:46:00,75.7,70.2,29.81,NNE,21,2.0,6.0,83,0.00,,BKN050,0.00,684.00,VWS V14.01,2013-09-09 16:46:00,
2013-09-09 11:51:00,76.4,70.9,29.80,North,5,2.0,5.0,83,0.00,,BKN050,0.00,689.00,VWS V14.01,2013-09-09 16:51:00,
2013-09-09 11:56:00,77.0,70.4,29.80,North,9,0.0,5.0,80,0.00,,BKN050,0.00,680.00,VWS V14.01,2013-09-09 16:56:00,
2013-09-09 12:01:00,77.5,70.8,29.80,North,9,0.0,3.0,80,0.00,,SCT048,0.00,712.00,VWS V14.01,2013-09-09 17:01:00,
2013-09-09 12:06:00,78.1,71.1,29.79,North,9,1.0,3.0,79,0.00,,SCT048,0.00,626.00,VWS V14.01,2013-09-09 17:06:00,
2013-09-09 12:11:00,78.0,71.0,29.79,North,5,2.0,5.0,79,0.00,,SCT048,0.00,285.00,VWS V14.01,2013-09-09 17:11:00,
2013-09-09 12:16:00,77.6,71.3,29.79,North,11,0.0,5.0,81,0.00,,SCT048,0.00,343.00,VWS V14.01,2013-09-09 17:16:00,
2013-09-09 12:21:00,77.7,71.0,29.79,North,11,1.0,2.0,80,0.00,,SCT048,0.00,686.00,VWS V14.01,2013-09-09 17:21:00,
2013-09-09 12:26:00,78.4,71.7,29.78,North,11,5.0,5.0,80,0.00,,SCT048,0.00,559.00,VWS V14.01,2013-09-09 17:26:00,
2013-09-09 12:31:00,78.5,71.8,29.78,NNE,15,0.0,7.0,80,0.00,,SCT037,0.00,359.00,VWS V14.01,2013-09-09 17:31:00,
2013-09-09 12:36:00,78.3,72.0,29.77,NNE,14,1.0,7.0,81,0.00,,SCT037,0.00,613.00,VWS V14.01,2013-09-09 17:36:00,
2013-09-09 12:41:00,78.9,71.8,29.77,NNE,13,0.0,3.0,79,0.00,,SCT037,0.00,587.00,VWS V14.01,2013-09-09 17:41:00,
2013-09-09 12:46:00,79.8,72.7,29.77,NW,321,0.0,5.0,79,0.00,,SCT037,0.00,765.00,VWS V14.01,2013-09-09 17:46:00,
2013-09-09 12:51:00,80.7,72.4,29.77,NW,319,0.0,3.0,76,0.00,,SCT037,0.00,675.00,VWS V14.01,2013-09-09 17:51:00,
2013-09-09 12:56:00,81.3,73.0,29.77,NNW,335,0.0,9.0,76,0.00,,SCT037,0.00,719.00,VWS V14.01,2013-09-09 17:56:00,
2013-09-09 13:01:00,81.5,72.8,29.76,WSW,254,1.0,5.0,75,0.00,,SCT017,0.00,357.00,VWS V14.01,2013-09-09 18:01:00,
2013-09-09 13:06:00,81.4,72.7,29.76,West,261,0.0,5.0,75,0.00,,SCT017,0.00,501.00,VWS V14.01,2013-09-09 18:06:00,
2013-09-09 13:11:00,80.7,72.8,29.76,WNW,288,0.0,3.0,77,0.00,,SCT017,0.00,508.00,VWS V14.01,2013-09-09 18:11:00,
2013-09-09 13:16:00,80.5,73.0,29.76,NNW,327,0.0,3.0,78,0.00,,SCT017,0.00,489.00,VWS V14.01,2013-09-09 18:16:00,
2013-09-09 13:21:00,80.9,73.4,29.76,NW,320,2.0,2.0,78,0.00,,SCT017,0.00,701.00,VWS V14.01,2013-09-09 18:21:00,
2013-09-09 13:26:00,81.7,73.8,29.76,NW,309,3.0,4.0,77,0.00,,SCT017,0.00,438.00,VWS V14.01,2013-09-09 18:26:00,
2013-09-09 13:31:00,81.8,73.1,29.76,WNW,291,0.0,3.0,75,0.00,,SCT019,0.00,656.00,VWS V14.01,2013-09-09 18:31:00,
2013-09-09 13:36:00,82.3,73.6,29.76,WNW,291,0.0,3.0,75,0.00,,SCT019,0.00,301.00,VWS V14.01,2013-09-09 18:36:00,
2013-09-09 13:41:00,82.3,73.6,29.76,WNW,291,0.0,1.0,75,0.00,,SCT019,0.00,243.00,VWS V14.01,2013-09-09 18:41:00,
2013-09-09 13:46:00,81.9,73.6,29.75,WNW,291,1.0,2.0,76,0.00,,SCT040,0.00,237.00,VWS V14.01,2013-09-09 18:46:00,
2013-09-09 13:51:00,81.6,73.3,29.75,WNW,291,0.0,2.0,76,0.00,,SCT040,0.00,264.00,VWS V14.01,2013-09-09 18:51:00,
2013-09-09 13:56:00,81.8,74.3,29.75,NW,305,1.0,2.0,78,0.00,,SCT040,0.00,232.00,VWS V14.01,2013-09-09 18:56:00,
2013-09-09 14:01:00,82.1,73.8,29.74,NW,312,1.0,1.0,76,0.00,,BKN040,0.00,489.00,VWS V14.01,2013-09-09 19:01:00,
2013-09-09 14:06:00,82.6,74.3,29.74,NW,312,0.0,1.0,76,0.00,,BKN040,0.00,657.00,VWS V14.01,2013-09-09 19:06:00,
2013-09-09 14:11:00,83.0,74.3,29.73,NW,311,0.0,1.0,75,0.00,,BKN040,0.00,318.00,VWS V14.01,2013-09-09 19:11:00,
2013-09-09 14:16:00,83.3,74.6,29.73,NW,306,0.0,4.0,75,0.00,,BKN040,0.00,221.00,VWS V14.01,2013-09-09 19:16:00,
2013-09-09 14:21:00,83.4,74.2,29.73,WNW,300,1.0,4.0,74,0.00,,BKN040,0.00,564.00,VWS V14.01,2013-09-09 19:21:00,
2013-09-09 14:26:00,83.6,74.8,29.73,North,5,0.0,4.0,75,0.00,,BKN040,0.00,483.00,VWS V14.01,2013-09-09 19:26:00,
2013-09-09 14:31:00,83.8,75.0,29.72,West,277,2.0,5.0,75,0.00,,BKN026,0.00,346.00,VWS V14.01,2013-09-09 19:31:00,
2013-09-09 14:36:00,84.7,75.1,29.72,West,277,0.0,5.0,73,0.00,,BKN026,0.00,362.00,VWS V14.01,2013-09-09 19:36:00,
2013-09-09 14:41:00,85.2,75.6,29.71,NNE,30,5.0,6.0,73,0.00,,BKN026,0.00,619.00,VWS V14.01,2013-09-09 19:41:00,
2013-09-09 14:46:00,85.4,75.3,29.71,WNW,292,3.0,6.0,72,0.00,,BKN023,0.00,476.00,VWS V14.01,2013-09-09 19:46:00,
2013-09-09 14:51:00,85.2,75.6,29.71,WNW,298,1.0,2.0,73,0.00,,BKN023,0.00,571.00,VWS V14.01,2013-09-09 19:51:00,
2013-09-09 14:56:00,85.5,75.4,29.71,WNW,298,0.0,2.0,72,0.00,,BKN023,0.00,643.00,VWS V14.01,2013-09-09 19:56:00,
2013-09-09 15:01:00,85.6,76.0,29.70,WNW,298,0.0,1.0,73,0.00,,BKN023,0.00,396.00,VWS V14.01,2013-09-09 20:01:00,
2013-09-09 15:06:00,85.9,75.8,29.70,West,267,1.0,4.0,72,0.00,,BKN023,0.00,548.00,VWS V14.01,2013-09-09 20:06:00,
2013-09-09 15:11:00,86.2,76.1,29.70,West,277,0.0,2.0,72,0.00,,BKN023,0.00,559.00,VWS V14.01,2013-09-09 20:11:00,
2013-09-09 15:16:00,86.8,75.8,29.70,WNW,296,0.0,3.0,70,0.00,,BKN023,0.00,473.00,VWS V14.01,2013-09-09 20:16:00,
2013-09-09 15:21:00,86.5,76.0,29.70,SW,221,0.0,5.0,71,0.00,,BKN023,0.00,517.00,VWS V14.01,2013-09-09 20:21:00,
2013-09-09 15:26:00,86.9,75.9,29.69,WSW,246,0.0,5.0,70,0.00,,BKN023,0.00,373.00,VWS V14.01,2013-09-09 20:26:00,
2013-09-09 15:31:00,87.3,75.9,29.69,West,259,0.0,2.0,69,0.00,,SCT025,0.00,469.00,VWS V14.01,2013-09-09 20:31:00,
2013-09-09 15:36:00,87.3,75.9,29.68,West,276,0.0,10.0,69,0.00,,SCT025,0.00,468.00,VWS V14.01,2013-09-09 20:36:00,
2013-09-09 15:41:00,87.6,76.2,29.68,West,276,0.0,2.0,69,0.00,,SCT025,0.00,455.00,VWS V14.01,2013-09-09 20:41:00,
2013-09-09 15:46:00,87.9,76.0,29.68,West,276,0.0,2.0,68,0.00,,SCT025,0.00,332.00,VWS V14.01,2013-09-09 20:46:00,
2013-09-09 15:51:00,88.0,76.1,29.67,West,271,0.0,1.0,68,0.00,,SCT025,0.00,209.00,VWS V14.01,2013-09-09 20:51:00,
2013-09-09 15:56:00,87.9,76.0,29.67,West,271,0.0,1.0,68,0.00,,SCT025,0.00,371.00,VWS V14.01,2013-09-09 20:56:00,
2013-09-09 16:01:00,87.8,76.4,29.67,West,270,0.0,1.0,69,0.00,,CLR,0.00,104.00,VWS V14.01,2013-09-09 21:01:00,
2013-09-09 16:06:00,87.8,76.4,29.67,West,270,1.0,1.0,69,0.00,,CLR,0.00,130.00,VWS V14.01,2013-09-09 21:06:00,
2013-09-09 16:11:00,88.0,76.6,29.67,West,270,0.0,1.0,69,0.00,,CLR,0.00,146.00,VWS V14.01,2013-09-09 21:11:00,
2013-09-09 16:16:00,88.2,76.3,29.67,West,270,0.0,1.0,68,0.00,,CLR,0.00,76.00,VWS V14.01,2013-09-09 21:16:00,
2013-09-09 16:21:00,88.3,76.8,29.66,West,270,0.0,0.0,69,0.00,,CLR,0.00,97.00,VWS V14.01,2013-09-09 21:21:00,
2013-09-09 16:26:00,88.4,76.5,29.66,West,270,0.0,1.0,68,0.00,,CLR,0.00,90.00,VWS V14.01,2013-09-09 21:26:00,
2013-09-09 16:31:00,88.5,76.2,29.66,West,271,0.0,1.0,67,0.00,,CLR,0.00,84.00,VWS V14.01,2013-09-09 21:31:00,
2013-09-09 16:36:00,88.6,76.2,29.65,West,270,0.0,2.0,67,0.00,,CLR,0.00,102.00,VWS V14.01,2013-09-09 21:36:00,
2013-09-09 16:41:00,88.8,76.4,29.66,West,270,0.0,1.0,67,0.00,,CLR,0.00,91.00,VWS V14.01,2013-09-09 21:41:00,
2013-09-09 16:46:00,89.0,76.2,29.66,West,269,0.0,1.0,66,0.00,,CLR,0.00,79.00,VWS V14.01,2013-09-09 21:46:00,
2013-09-09 16:51:00,89.0,75.7,29.66,West,269,1.0,1.0,65,0.00,,CLR,0.00,70.00,VWS V14.01,2013-09-09 21:51:00,
2013-09-09 16:56:00,89.0,76.2,29.66,West,269,0.0,1.0,66,0.00,,CLR,0.00,74.00,VWS V14.01,2013-09-09 21:56:00,
2013-09-09 17:01:00,89.0,76.2,29.66,West,269,0.0,1.0,66,0.00,,CLR,0.00,69.00,VWS V14.01,2013-09-09 22:01:00,
2013-09-09 17:06:00,89.0,76.2,29.66,West,269,0.0,1.0,66,0.00,,CLR,0.00,62.00,VWS V14.01,2013-09-09 22:06:00,
2013-09-09 17:11:00,89.0,76.2,29.66,West,269,0.0,1.0,66,0.00,,CLR,0.00,54.00,VWS V14.01,2013-09-09 22:11:00,
2013-09-09 17:16:00,88.9,75.6,29.66,West,269,0.0,1.0,65,0.00,,CLR,0.00,51.00,VWS V14.01,2013-09-09 22:16:00,
2013-09-09 17:21:00,88.8,75.1,29.66,West,269,0.0,1.0,64,0.00,,CLR,0.00,44.00,VWS V14.01,2013-09-09 22:21:00,
2013-09-09 17:26:00,88.6,74.9,29.66,West,269,0.0,1.0,64,0.00,,CLR,0.00,35.00,VWS V14.01,2013-09-09 22:26:00,
2013-09-09 17:31:00,88.5,75.2,29.65,West,269,0.0,0.0,65,0.00,,CLR,0.00,37.00,VWS V14.01,2013-09-09 22:31:00,
2013-09-09 17:36:00,88.4,75.1,29.65,West,269,0.0,1.0,65,0.00,,CLR,0.00,32.00,VWS V14.01,2013-09-09 22:36:00,
2013-09-09 17:41:00,88.3,75.1,29.65,West,269,0.0,0.0,65,0.00,,CLR,0.00,33.00,VWS V14.01,2013-09-09 22:41:00,
2013-09-09 17:46:00,88.1,74.9,29.65,West,269,0.0,1.0,65,0.00,,CLR,0.00,40.00,VWS V14.01,2013-09-09 22:46:00,
2013-09-09 17:51:00,87.9,75.1,29.65,West,269,0.0,1.0,66,0.00,,CLR,0.00,33.00,VWS V14.01,2013-09-09 22:51:00,
2013-09-09 17:56:00,87.8,75.0,29.65,West,269,0.0,1.0,66,0.00,,CLR,0.00,40.00,VWS V14.01,2013-09-09 22:56:00,
2013-09-09 18:01:00,87.6,74.8,29.65,SW,215,0.0,0.0,66,0.00,,CLR,0.00,46.00,VWS V14.01,2013-09-09 23:01:00,
2013-09-09 18:06:00,87.5,74.8,29.65,SW,215,0.0,1.0,66,0.00,,CLR,0.00,44.00,VWS V14.01,2013-09-09 23:06:00,
2013-09-09 18:11:00,87.5,74.8,29.65,SW,215,0.0,0.0,66,0.00,,CLR,0.00,35.00,VWS V14.01,2013-09-09 23:11:00,
2013-09-09 18:16:00,87.3,75.0,29.65,SW,215,0.0,1.0,67,0.00,,CLR,0.00,32.00,VWS V14.01,2013-09-09 23:16:00,
2013-09-09 18:21:00,87.2,74.9,29.65,SSW,209,0.0,0.0,67,0.00,,CLR,0.00,32.00,VWS V14.01,2013-09-09 23:21:00,
2013-09-09 18:26:00,86.9,75.1,29.65,SSW,209,0.0,1.0,68,0.00,,CLR,0.00,33.00,VWS V14.01,2013-09-09 23:26:00,
2013-09-09 18:31:00,86.8,75.4,29.65,SSW,209,0.0,0.0,69,0.00,,CLR,0.00,30.00,VWS V14.01,2013-09-09 23:31:00,
2013-09-09 18:36:00,86.6,75.2,29.64,SSW,209,0.0,1.0,69,0.00,,CLR,0.00,25.00,VWS V14.01,2013-09-09 23:36:00,
2013-09-09 18:41:00,86.4,75.5,29.65,SSW,209,0.0,0.0,70,0.00,,CLR,0.00,18.00,VWS V14.01,2013-09-09 23:41:00,
2013-09-09 18:46:00,86.2,75.7,29.64,SSW,209,0.0,1.0,71,0.00,,CLR,0.00,14.00,VWS V14.01,2013-09-09 23:46:00,
2013-09-09 18:51:00,86.0,75.5,29.64,SSW,209,0.0,0.0,71,0.00,,CLR,0.00,11.00,VWS V14.01,2013-09-09 23:51:00,
2013-09-09 18:56:00,85.9,75.8,29.64,SSW,209,0.0,0.0,72,0.00,,CLR,0.00,11.00,VWS V14.01,2013-09-09 23:56:00,
2013-09-09 19:01:00,85.7,75.6,29.64,SSW,209,0.0,0.0,72,0.00,,CLR,0.00,7.00,VWS V14.01,2013-09-10 00:01:00,
2013-09-09 19:06:00,85.5,75.9,29.64,SSW,209,0.0,0.0,73,0.00,,CLR,0.00,5.00,VWS V14.01,2013-09-10 00:06:00,
2013-09-09 19:11:00,85.4,75.8,29.64,SSW,209,0.0,0.0,73,0.00,,CLR,0.00,0.00,VWS V14.01,2013-09-10 00:11:00,
2013-09-09 19:16:00,85.3,75.7,29.64,SSW,209,0.0,0.0,73,0.00,,CLR,0.00,0.00,VWS V14.01,2013-09-10 00:16:00,
2013-09-09 19:21:00,85.2,76.0,29.64,SSW,209,0.0,0.0,74,0.00,,CLR,0.00,0.00,VWS V14.01,2013-09-10 00:21:00,
2013-09-09 19:26:00,85.0,75.8,29.64,SSW,209,0.0,0.0,74,0.00,,CLR,0.00,0.00,VWS V14.01,2013-09-10 00:26:00,
2013-09-09 19:31:00,84.9,75.7,29.65,SSW,209,0.0,0.0,74,0.00,,CLR,0.00,0.00,VWS V14.01,2013-09-10 00:31:00,
2013-09-09 19:36:00,84.8,76.0,29.65,SSW,209,0.0,0.0,75,0.00,,CLR,0.00,0.00,VWS V14.01,2013-09-10 00:36:00,
2013-09-09 19:41:00,84.6,75.8,29.65,SSW,209,0.0,0.0,75,0.00,,CLR,0.00,0.00,VWS V14.01,2013-09-10 00:41:00,
2013-09-09 19:46:00,84.4,76.0,29.65,SSW,209,0.0,0.0,76,0.00,,CLR,0.00,0.00,VWS V14.01,2013-09-10 00:46:00,
2013-09-09 19:51:00,84.2,75.8,29.65,SSW,209,0.0,0.0,76,0.00,,CLR,0.00,0.00,VWS V14.01,2013-09-10 00:51:00,
2013-09-09 19:56:00,84.0,76.0,29.65,SSW,209,0.0,0.0,77,0.00,,CLR,0.00,0.00,VWS V14.01,2013-09-10 00:56:00,
2013-09-09 20:01:00,83.8,75.8,29.65,SSW,209,0.0,0.0,77,0.00,,CLR,0.00,0.00,VWS V14.01,2013-09-10 01:01:00,
2013-09-09 20:06:00,83.7,75.7,29.65,SSW,209,0.0,0.0,77,0.00,,CLR,0.00,0.00,VWS V14.01,2013-09-10 01:06:00,
2013-09-09 20:11:00,83.5,75.9,29.65,SSW,209,0.0,0.0,78,0.00,,CLR,0.00,0.00,VWS V14.01,2013-09-10 01:11:00,
2013-09-09 20:16:00,83.3,75.7,29.65,SSW,209,0.0,0.0,78,0.00,,CLR,0.00,0.00,VWS V14.01,2013-09-10 01:16:00,
2013-09-09 20:21:00,83.1,75.5,29.65,SSW,209,0.0,0.0,78,0.00,,CLR,0.00,0.00,VWS V14.01,2013-09-10 01:21:00,
2013-09-09 20:26:00,83.0,75.4,29.65,SSW,209,0.0,0.0,78,0.00,,CLR,0.00,0.00,VWS V14.01,2013-09-10 01:26:00,
2013-09-09 20:31:00,82.9,75.3,29.65,SSW,209,0.0,0.0,78,0.00,,CLR,0.00,0.00,VWS V14.01,2013-09-10 01:31:00,
2013-09-09 20:36:00,82.9,75.3,29.66,SSW,209,0.0,0.0,78,0.00,,CLR,0.00,0.00,VWS V14.01,2013-09-10 01:36:00,
2013-09-09 20:41:00,82.7,75.2,29.66,SSW,209,0.0,0.0,78,0.00,,CLR,0.00,0.00,VWS V14.01,2013-09-10 01:41:00,
2013-09-09 20:46:00,82.7,75.2,29.66,SSW,209,0.0,0.0,78,0.00,,CLR,0.00,0.00,VWS V14.01,2013-09-10 01:46:00,
2013-09-09 20:51:00,82.6,75.1,29.66,SSW,209,0.0,0.0,78,0.00,,CLR,0.00,0.00,VWS V14.01,2013-09-10 01:51:00,
2013-09-09 20:56:00,82.5,74.9,29.66,SSW,209,0.0,0.0,78,0.00,,CLR,0.00,0.00,VWS V14.01,2013-09-10 01:56:00,
2013-09-09 21:01:00,82.5,74.9,29.66,SSW,209,0.0,0.0,78,0.00,,CLR,0.00,0.00,VWS V14.01,2013-09-10 02:01:00,
2013-09-09 21:06:00,82.4,74.5,29.66,SSW,209,0.0,0.0,77,0.00,,CLR,0.00,0.00,VWS V14.01,2013-09-10 02:06:00,
2013-09-09 21:10:00,82.5,74.6,29.66,SSW,209,0.0,0.0,77,0.00,,CLR,0.00,0.00,VWS V14.01,2013-09-10 02:10:00,
2013-09-09 21:15:00,82.5,74.6,29.66,SSW,209,0.0,0.0,77,0.00,,CLR,0.00,0.00,VWS V14.01,2013-09-10 02:15:00,
2013-09-09 21:20:00,82.5,74.2,29.66,SSW,209,0.0,0.0,76,0.00,,CLR,0.00,0.00,VWS V14.01,2013-09-10 02:20:00,
2013-09-09 21:25:00,82.5,74.2,29.66,SSW,209,0.0,0.0,76,0.00,,CLR,0.00,0.00,VWS V14.01,2013-09-10 02:25:00,
2013-09-09 21:30:00,82.5,73.8,29.66,SSW,209,0.0,0.0,75,0.00,,CLR,0.00,0.00,VWS V14.01,2013-09-10 02:30:00,
2013-09-09 21:35:00,82.5,73.8,29.66,SSW,209,0.0,0.0,75,0.00,,CLR,0.00,0.00,VWS V14.01,2013-09-10 02:35:00,
2013-09-09 21:40:00,82.5,73.8,29.66,SSW,209,0.0,0.0,75,0.00,,CLR,0.00,0.00,VWS V14.01,2013-09-10 02:40:00,
2013-09-09 21:45:00,82.5,73.4,29.66,SSW,209,0.0,0.0,74,0.00,,CLR,0.00,0.00,VWS V14.01,2013-09-10 02:45:00,
2013-09-09 21:50:00,82.5,73.4,29.66,SSW,209,0.0,0.0,74,0.00,,CLR,0.00,0.00,VWS V14.01,2013-09-10 02:50:00,
2013-09-09 21:55:00,82.4,73.3,29.66,SSW,209,0.0,0.0,74,0.00,,CLR,0.00,0.00,VWS V14.01,2013-09-10 02:55:00,
2013-09-09 22:00:00,82.4,72.9,29.66,SSW,209,0.0,0.0,73,0.00,,CLR,0.00,0.00,VWS V14.01,2013-09-10 03:00:00,
2013-09-09 22:05:00,82.3,72.8,29.66,SSW,209,0.0,0.0,73,0.00,,CLR,0.00,0.00,VWS V14.01,2013-09-10 03:05:00,
2013-09-09 22:10:00,82.3,72.8,29.66,SSW,209,0.0,0.0,73,0.00,,CLR,0.00,0.00,VWS V14.01,2013-09-10 03:10:00,
2013-09-09 22:15:00,82.2,72.7,29.66,SSW,209,0.0,0.0,73,0.00,,CLR,0.00,0.00,VWS V14.01,2013-09-10 03:15:00,
2013-09-09 22:20:00,82.1,72.6,29.66,SSW,209,0.0,0.0,73,0.00,,CLR,0.00,0.00,VWS V14.01,2013-09-10 03:20:00,
2013-09-09 22:25:00,82.0,72.5,29.66,SSW,209,0.0,0.0,73,0.00,,CLR,0.00,0.00,VWS V14.01,2013-09-10 03:25:00,
2013-09-09 22:30:00,81.9,72.4,29.66,SSW,209,0.0,0.0,73,0.00,,CLR,0.00,0.00,VWS V14.01,2013-09-10 03:30:00,
2013-09-09 22:35:00,81.8,71.9,29.67,SSW,209,0.0,0.0,72,0.00,,CLR,0.00,0.00,VWS V14.01,2013-09-10 03:35:00,
2013-09-09 22:40:00,81.7,71.8,29.67,SSW,209,0.0,0.0,72,0.00,,CLR,0.00,0.00,VWS V14.01,2013-09-10 03:40:00,
2013-09-09 22:45:00,81.7,71.8,29.67,SSW,209,0.0,0.0,72,0.00,,CLR,0.00,0.00,VWS V14.01,2013-09-10 03:45:00,
2013-09-09 22:50:00,81.6,71.3,29.67,SSW,209,0.0,0.0,71,0.00,,CLR,0.00,0.00,VWS V14.01,2013-09-10 03:50:00,
2013-09-09 22:55:00,81.6,71.3,29.67,SSW,209,0.0,0.0,71,0.00,,CLR,0.00,0.00,VWS V14.01,2013-09-10 03:55:00,
2013-09-09 23:00:00,81.6,70.9,29.67,SSW,209,0.0,0.0,70,0.00,,CLR,0.00,0.00,VWS V14.01,2013-09-10 04:00:00,
2013-09-09 23:01:00,81.6,70.9,29.67,SSW,209,0.0,0.0,70,0.00,,CLR,0.00,0.00,VWS V14.01,2013-09-10 04:01:00,
2013-09-09 23:06:00,81.6,70.4,29.67,SSW,209,0.0,1.0,69,0.00,,CLR,0.00,0.00,VWS V14.01,2013-09-10 04:06:00,
2013-09-09 23:12:00,81.7,70.1,29.67,SSW,209,0.0,1.0,68,0.00,,CLR,0.00,0.00,VWS V14.01,2013-09-10 04:12:00,
2013-09-09 23:17:00,81.9,69.9,29.67,SSW,211,0.0,2.0,67,0.00,,CLR,0.00,0.00,VWS V14.01,2013-09-10 04:17:00,
2013-09-09 23:21:00,82.1,69.6,29.67,SSW,210,0.0,1.0,66,0.00,,CLR,0.00,0.00,VWS V14.01,2013-09-10 04:21:00,
2013-09-09 23:26:00,82.5,69.6,29.67,SSW,210,0.0,1.0,65,0.00,,CLR,0.00,0.00,VWS V14.01,2013-09-10 04:26:00,
2013-09-09 23:31:00,82.9,69.5,29.67,SSW,210,0.0,1.0,64,0.00,,CLR,0.00,0.00,VWS V14.01,2013-09-10 04:31:00,
2013-09-09 23:36:00,83.3,69.4,29.66,SSW,210,0.0,1.0,63,0.00,,CLR,0.00,0.00,VWS V14.01,2013-09-10 04:36:00,
2013-09-09 23:41:00,83.6,69.2,29.66,WSW,243,3.0,3.0,62,0.00,,CLR,0.00,0.00,VWS V14.01,2013-09-10 04:41:00,
2013-09-09 23:46:00,83.9,69.5,29.67,SSE,153,0.0,5.0,62,0.00,,CLR,0.00,0.00,VWS V14.01,2013-09-10 04:46:00,
2013-09-09 23:51:00,84.1,69.2,29.67,ESE,108,0.0,1.0,61,0.00,,CLR,0.00,0.00,VWS V14.01,2013-09-10 04:51:00,
2013-09-09 23:56:00,84.3,68.9,29.67,ESE,113,0.0,2.0,60,0.00,,CLR,0.00,0.00,VWS V14.01,2013-09-10 04:56:00,